Date String (YYYY-MM-DD hh:mm:ss) UTC,Instrument flags,Ambient pressure (hPa),Sample flow (lpm),Bypass flow (lpm),Sample temperature (°C),Ambient temperature (°C),ASC tube jacket temperature (°C),LED temperature (°C),Box temperature (°C),Sample RH (%),Span deviation,Mass concentration (μg/m³),Mass concentration (μg/m³),Mass concentration (μg/m³)
DateTimeUTC,F1_M11,P_M11,Q1_M11,Q2_M11,T1_M11,T2_M11,T3_M11,T4_M11,T5_M11,U1_M11,ZSPAN_M11,X2_M11,X0_M11,X1_M11
2021-10-20 02:00:00,,0826.7,5.00,0.00,27.0,26.3,00.0,36.3,28.7,16.8,0000.0,0002.68,0009.27,0001.49
2021-10-20 02:01:00,,0826.7,5.00,0.00,27.0,26.3,00.0,36.2,28.7,16.8,0000.0,0002.70,0009.92,0001.51
2021-10-20 02:02:00,,0826.7,5.00,0.00,27.0,26.3,00.0,36.2,28.7,16.8,0000.0,0002.74,0009.85,0001.51
2021-10-20 02:03:00,,0826.7,4.99,0.00,27.0,26.3,00.0,36.2,28.7,16.8,0000.0,0002.80,0009.80,0001.53
2021-10-20 02:04:00,,0826.7,5.00,0.00,27.0,26.3,00.0,36.2,28.7,16.9,0000.0,0002.80,0008.53,0001.54
2021-10-20 02:05:00,,0826.7,4.99,0.00,27.0,26.2,00.0,36.2,28.7,16.9,0000.0,0002.81,0008.25,0001.56
2021-10-20 02:06:00,,0826.6,4.99,0.00,26.9,26.2,00.0,36.2,28.6,16.9,0000.0,0002.78,0008.34,0001.56
2021-10-20 02:07:00,,0826.6,4.99,0.00,26.9,26.2,00.0,36.2,28.6,16.9,0000.0,0002.75,0008.32,0001.56
2021-10-20 02:08:00,,0826.6,5.00,0.00,26.9,26.2,00.0,36.2,28.6,16.9,0000.0,0002.70,0009.15,0001.57
2021-10-20 02:09:00,,0826.6,5.00,0.00,26.9,26.1,00.0,36.1,28.6,16.9,0000.0,0002.60,0009.67,0001.58
2021-10-20 02:10:00,,0826.6,5.01,0.00,26.8,26.1,00.0,36.1,28.5,16.9,0000.0,0002.63,0010.12,0001.58
2021-10-20 02:11:00,,0826.6,5.00,0.00,26.8,26.1,00.0,36.1,28.5,17.0,0000.0,0002.64,0010.31,0001.59
2021-10-20 02:12:00,,0826.5,5.00,0.00,26.8,26.0,00.0,36.1,28.4,17.0,0000.0,0002.66,0009.72,0001.60
2021-10-20 02:13:00,,0826.5,5.00,0.00,26.8,26.0,00.0,36.1,28.4,17.0,0000.0,0002.66,0009.78,0001.61
2021-10-20 02:14:00,,0826.5,4.99,0.00,26.7,25.9,00.0,36.1,28.4,17.0,0000.0,0002.63,0009.92,0001.61
2021-10-20 02:15:00,,0826.5,5.01,0.00,26.7,25.9,00.0,36.0,28.4,17.0,0000.0,0002.63,0011.17,0001.62
2021-10-20 02:16:00,,0826.5,5.00,0.00,26.7,25.9,00.0,36.0,28.4,17.0,0000.0,0002.65,0012.81,0001.61
2021-10-20 02:17:00,,0826.5,4.99,0.00,26.7,25.9,00.0,36.0,28.4,17.1,0000.0,0002.69,0012.60,0001.61
2021-10-20 02:18:00,,0826.5,5.00,0.00,26.7,25.8,00.0,36.0,28.3,17.1,0000.0,0002.71,0012.84,0001.63
2021-10-20 02:19:00,,0826.5,5.01,0.00,26.6,25.8,00.0,35.9,28.3,17.1,0000.0,0002.78,0012.82,0001.63
2021-10-20 02:20:00,,0826.5,5.01,0.00,26.6,25.8,00.0,35.9,28.2,17.1,0000.0,0002.80,0012.23,0001.64
2021-10-20 02:21:00,,0826.5,5.01,0.00,26.6,25.7,00.0,35.9,28.2,17.2,0000.0,0002.81,0012.41,0001.65
2021-10-20 02:22:00,,0826.5,4.99,0.00,26.5,25.7,00.0,35.9,28.2,17.2,0000.0,0002.82,0011.91,0001.66
2021-10-20 02:23:00,,0826.5,5.01,0.00,26.5,25.7,00.0,35.9,28.2,17.2,0000.0,0002.86,0011.85,0001.66
2021-10-20 02:24:00,,0826.5,5.00,0.00,26.5,25.6,00.0,35.8,28.1,17.3,0000.0,0002.95,0012.26,0001.68
2021-10-20 02:25:00,,0826.5,5.00,0.00,26.4,25.6,00.0,35.8,28.1,17.3,0000.0,0003.01,0012.43,0001.71
2021-10-20 02:26:00,,0826.5,5.01,0.00,26.4,25.5,00.0,35.8,28.0,17.4,0000.0,0002.99,0011.64,0001.72
2021-10-20 02:27:00,,0826.5,5.00,0.00,26.3,25.5,00.0,35.7,28.0,17.4,0000.0,0003.03,0009.67,0001.73
2021-10-20 02:28:00,,0826.5,5.00,0.00,26.3,25.5,00.0,35.7,28.0,17.4,0000.0,0003.08,0009.54,0001.74
2021-10-20 02:29:00,,0826.5,5.00,0.00,26.3,25.5,00.0,35.7,28.0,17.4,0000.0,0003.12,0010.04,0001.75
2021-10-20 02:30:00,,0826.5,4.99,0.00,26.3,25.5,00.0,35.7,28.0,17.4,0000.0,0003.08,0009.87,0001.76
2021-10-20 02:31:00,,0826.5,4.99,0.00,26.3,25.5,00.0,35.7,28.1,17.3,0000.0,0003.08,0010.27,0001.76
2021-10-20 02:32:00,,0826.5,5.01,0.00,26.3,25.5,00.0,35.6,28.1,17.3,0000.0,0003.12,0010.05,0001.77
2021-10-20 02:33:00,,0826.5,5.00,0.00,26.3,25.5,00.0,35.6,28.0,17.3,0000.0,0003.09,0010.38,0001.78
2021-10-20 02:34:00,,0826.5,4.99,0.00,26.3,25.5,00.0,35.6,28.1,17.3,0000.0,0003.05,0010.30,0001.80
2021-10-20 02:35:00,,0826.5,4.99,0.00,26.3,25.5,00.0,35.6,28.1,17.3,0000.0,0002.94,0009.83,0001.80
2021-10-20 02:36:00,,0826.5,4.99,0.00,26.3,25.6,00.0,35.6,28.1,17.3,0000.0,0002.91,0010.65,0001.80
2021-10-20 02:37:00,,0826.5,5.00,0.00,26.3,25.6,00.0,35.6,28.1,17.3,0000.0,0002.93,0011.04,0001.81
2021-10-20 02:38:00,,0826.5,5.01,0.00,26.3,25.6,00.0,35.6,28.1,17.3,0000.0,0002.94,0011.24,0001.82
2021-10-20 02:39:00,,0826.5,5.00,0.00,26.3,25.7,00.0,35.5,28.1,17.3,0000.0,0002.88,0011.33,0001.84
2021-10-20 02:40:00,,0826.5,5.01,0.00,26.3,25.6,00.0,35.5,28.1,17.3,0000.0,0002.88,0011.06,0001.86
2021-10-20 02:41:00,,0826.5,5.01,0.00,26.3,25.6,00.0,35.5,28.1,17.3,0000.0,0002.97,0011.10,0001.89
2021-10-20 02:42:00,,0826.5,5.00,0.00,26.3,25.6,00.0,35.5,28.1,17.3,0000.0,0003.02,0010.43,0001.91
2021-10-20 02:43:00,,0826.5,5.00,0.00,26.4,25.6,00.0,35.5,28.1,17.3,0000.0,0003.03,0010.29,0001.92
2021-10-20 02:44:00,,0826.5,4.99,0.00,26.4,25.7,00.0,35.5,28.2,17.2,0000.0,0003.08,0009.85,0001.93
2021-10-20 02:45:00,,0826.6,5.01,0.00,26.4,25.7,00.0,35.5,28.2,17.2,0000.0,0003.10,0009.88,0001.94
2021-10-20 02:46:00,,0826.7,5.00,0.00,26.4,25.7,00.0,35.5,28.2,17.2,0000.0,0003.16,0011.14,0001.96
2021-10-20 02:47:00,,0826.7,5.01,0.00,26.4,25.7,00.0,35.5,28.2,17.2,0000.0,0003.19,0011.07,0001.99
2021-10-20 02:48:00,,0826.7,5.01,0.00,26.4,25.7,00.0,35.5,28.2,17.2,0000.0,0003.21,0010.74,0002.00
2021-10-20 02:49:00,,0826.6,5.00,0.00,26.4,25.8,00.0,35.5,28.2,17.2,0000.0,0003.22,0010.95,0002.03
2021-10-20 02:50:00,,0826.6,5.00,0.00,26.4,25.8,00.0,35.5,28.2,17.2,0000.0,0003.24,0011.06,0002.04
2021-10-20 02:51:00,,0826.6,5.00,0.00,26.5,25.8,00.0,35.5,28.3,17.1,0000.0,0003.29,0011.32,0002.06
2021-10-20 02:52:00,,0826.6,5.00,0.00,26.5,25.9,00.0,35.6,28.3,17.1,0000.0,0003.30,0010.97,0002.06
2021-10-20 02:53:00,,0826.6,5.00,0.00,26.5,25.9,00.0,35.6,28.4,17.0,0000.0,0003.29,0011.05,0002.07
2021-10-20 02:54:00,,0826.6,5.00,0.00,26.5,25.9,00.0,35.6,28.4,17.0,0000.0,0003.30,0011.13,0002.07
2021-10-20 02:55:00,,0826.5,5.00,0.00,26.6,26.0,00.0,35.6,28.4,16.9,0000.0,0003.29,0011.14,0002.08
2021-10-20 02:56:00,,0826.5,5.01,0.00,26.6,26.0,00.0,35.6,28.5,16.9,0000.0,0003.29,0011.07,0002.08
2021-10-20 02:57:00,,0826.5,5.00,0.00,26.6,26.0,00.0,35.6,28.5,16.9,0000.0,0003.28,0009.79,0002.08
2021-10-20 02:58:00,,0826.5,4.99,0.00,26.6,26.0,00.0,35.6,28.5,17.0,0000.0,0003.27,0008.71,0002.09
2021-10-20 02:59:00,,0826.6,5.01,0.00,26.7,26.0,00.0,35.6,28.5,17.0,0000.0,0003.31,0008.88,0002.09
